Overview Statistics Trail Chart Weather Telemetry Raw packets
 

This is the latest recevied weather packets stored in our database for station/object KC2TER. If no packets are shown the sender has not sent any weather packets the latest 10 day(s).

<< 106 107 108 109 110 111 112 >>
Time Temp. Humidity Pressure Rain* Wind** Luminosity Snow
1787760505 26.11° C 66% 1019.2 hPa 0 mm - 706 W/m² -
1787760205 26.11° C 66% 1019.2 hPa 0 mm - 696 W/m² -
1787759901 26.11° C 66% 1019.1 hPa 0 mm - 691 W/m² -
1787759597 26.11° C 65% 1019.4 hPa 0 mm - 679 W/m² -
1787759292 25.56° C 65% 1019.3 hPa 0 mm - 672 W/m² -
1787758988 25.56° C 67% 1019.3 hPa 0 mm - 665 W/m² -
1787758687 25.56° C 67% 1019.2 hPa 0 mm - 651 W/m² -
1787758383 25° C 63% 1019.2 hPa 0 mm - 655 W/m² -
1787758080 25.56° C 63% 1019.4 hPa 0 mm - 663 W/m² -
1787757777 25° C 64% 1019.3 hPa 0 mm - 645 W/m² -
1787757477 25° C 67% 1019.4 hPa 0 mm - 625 W/m² -
1787757171 24.44° C 65% 1019.4 hPa 0 mm - 613 W/m² -
1787756870 24.44° C 64% 1019.2 hPa 0 mm - 617 W/m² -
1787756567 24.44° C 66% 1019.4 hPa 0 mm - 607 W/m² -
1787756264 23.89° C 67% 1019.4 hPa 0 mm - 591 W/m² -
1787755960 23.89° C 67% 1019.3 hPa 0 mm - 585 W/m² -
1787755659 23.33° C 68% 1019.3 hPa 0 mm - 137 W/m² -
1787755355 23.33° C 70% 1019.2 hPa 0 mm - 244 W/m² -
1787755054 23.33° C 72% 1019 hPa 0 mm - 77 W/m² -
1787754749 23.33° C 70% 1019.1 hPa 0 mm - 97 W/m² -
1787754446 22.78° C 72% 1019.4 hPa 0 mm - 79 W/m² -
1787754141 22.78° C 73% 1019.3 hPa 0 mm - 51 W/m² -
1787753836 22.78° C 73% 1019.4 hPa 0 mm - 103 W/m² -
1787753535 22.78° C 72% 1019.3 hPa 0 mm - 212 W/m² -
1787753234 22.22° C 72% 1019.3 hPa 0 mm - 152 W/m² -

* Rain latest hour (hover to see other rain measurements)
** Current wind speed in m/s (hover to see current wind gust speed)